Location: Lac de la Montagne noire
(46.1952°N, 74.2701°W)
Time: 16:28:01
(UTC-04:00)

Envisat - Pass Details

Date: 27 March 2019
Orbit: 764 x 766 km, 98.2° (Epoch: 21 April)

Event Time Altitude Azimuth Distance (km) Brightness Sun altitude
Rises 19:52:33 0° 179° (S) 3,219 6.1 -6.6°
Reaches altitude 10° 19:54:54 10° 185° (S) 2,297 5.4 -7.0°
Maximum altitude 19:59:50 51° 261° (W) 963 4.0 -7.8°
Drops below altitude 10° 20:04:47 10° 337° (NNW) 2,313 6.0 -8.7°
Sets 20:07:11 0° 342° (NNW) 3,243 6.7 -9.1°
